{"data":{"norad_id":63233,"intl_designator":"2025-052Z","name":"LIZZIESAT-3 (LS-3)","alt_names":[],"object_type":"PAYLOAD","status":"ACTIVE","operator":null,"country":"US","launch_date":"2025-03-15","launch_site_code":"AFWTR","launch_vehicle":null,"mission":null,"orbit_class":"UNKNOWN","rcs_meters":null,"size_class":null,"mass_kg":null,"dimensions":null,"purposes":[],"wikipedia_slug":null,"has_3d_model":false,"image_url":null,"decayed_at":null,"tle_current":{"epoch":"2026-09-22T21:54:55.132704Z","epoch_age_seconds":100152,"freshness":"FRESH","line1":"1 63233U 25052Z   26265.91313811  .00003399  00000+0  14959-3 0  9993","line2":"2 63233  97.3762 156.0021 0006131 161.4312 198.7149 15.22517851 84678","mean_motion":15.22517851,"eccentricity":0.0006131,"inclination_deg":97.3762,"raan_deg":156.0021,"arg_perigee_deg":161.4312,"mean_anomaly_deg":198.7149,"bstar":0.00014959,"rev_number":8467,"period_min":94.580171855075,"perigee_km":494.03306165787,"apogee_km":502.46488613906,"semimajor_km":6876.3859738985,"source":"CELESTRAK","updated_at":"2026-09-23T09:00:21.904027Z"}}}